Location: Appletree Creek
(38.7363°N, 122.6833°W)
Time: 18:11:01
(UTC+00:00)

deb Chang Zheng 4 - Pass Details

Date: 18 September 2020
Orbit: 602 x 626 km, 98.6° (Epoch: 19 October)

Event Time Altitude Azimuth Distance (km) Brightness Sun altitude
Rises 12:41:22 0° 12° (NNE) 2,893 7.4 -15.1°
Reaches altitude 10° 12:43:34 10° 12° (NNE) 1,979 6.5 -14.7°
Maximum altitude 12:47:52 85° 286° (WNW) 618 3.5 -13.9°
Drops below altitude 10° 12:52:06 10° 197° (SSW) 1,950 5.8 -13.1°
Sets 12:54:16 0° 196° (SSW) 2,847 6.7 -12.6°
